Regional Weather Roundup
Issued by NWS State College, PA

Home | Current Version | Previous Version | Text Only | Print | Product List | Glossary On
Versions: 1 2 3 4 5 6 7 8 9 10 11 12 13 14 15 16 17 18 19 20 21 22 23 24 25 26 27 28 29 30 31 32 33 34 35 36 37 38 39 40 41 42 43 44 45 46 47 48 49 50
000
ASUS41 KCTP 290910
RWRCTP

REGIONAL WEATHER ROUNDUP
NATIONAL WEATHER SERVICE STATE COLLEGE PA
500 AM EDT FRI MAY 29 2015

Note: "fair" indicates few or no clouds below 12,000 feet with no
significant weather and/or obstructions to visibility.

* = STATION THAT DOES NOT REPORT PRECIPITATION /E.G. RAIN...SNOW...ETC/
    THUNDER OR FOG.

PAZ002>004-007>009-013>016-020>023-029>032-291000-
WESTERN PENNSYLVANIA

CITY           SKY/WX    TMP DP  RH WIND       PRES   REMARKS
ERIE           CLEAR     65  52  62 SE13      30.21S
MEADVILLE      CLEAR     60  51  72 E3        30.24S
FRANKLIN*      CLEAR     55  48  76 E5        30.26S
NEW CASTLE     FAIR      56  56 100 CALM      30.23R
BEAVER COUNTY  NOT AVBL
BUTLER*        CLEAR     55  52  88 E6        30.25R
PITTSBURGH INT PTCLDY    62  54  74 E3        30.21S
PITTSBURGH     CLEAR     62  49  62 E5        30.21R
INDIANA*       MOCLDY    61  54  77 E3        30.28S
LATROBE        PTCLDY    68  54  60 CALM      30.23S
WASHINGTON CO* CLEAR     54  52  94 CALM      30.22S VSB 1
$$

PAZ004>006-010>012-017>019-024>028-033>037-041-042-045-046-049>053-291000-
CENTRAL PENNSYLVANIA

CITY           SKY/WX    TMP DP  RH WIND       PRES   REMARKS
BRADFORD       CLEAR     48  46  93 CALM      30.30R
DUBOIS         CLEAR     57  50  77 E6        30.27R
CLEARFIELD     CLEAR     51  49  92 N5        30.29R
JOHNSTOWN      CLEAR     61  49  64 E3        30.28R
ALTOONA        MOCLDY    59  52  77 CALM      30.28R
STATE COLLEGE  CLEAR     57  53  85 CALM      30.29R
WILLIAMSPORT   CLEAR     55  52  89 CALM      30.28R
SELINSGROVE    CLEAR     55  53  93 CALM      30.28R
FT INDIANTOWN  CLEAR     56  54  91 NE3       30.27R
CAPITAL CITY   CLEAR     61  54  77 CALM      30.26R
HARRISBURG     CLEAR     63  55  75 N3        30.25S
YORK           CLEAR     57  56  96 CALM      30.26R
$$

PAZ038>040-043-044-047-048-054-055-060>062-067>071-291000-
EASTERN PENNSYLVANIA

CITY           SKY/WX    TMP DP  RH WIND       PRES   REMARKS
SCRANTON       CLEAR     55  50  83 E6        30.29S
MOUNT POCONO   CLEAR     56  32  40 NE8       30.30S
ALLENTOWN      CLEAR     56  52  86 CALM      30.27S
QUAKERTOWN*    SUNNY     55  54  94 CALM      30.28S
READING        CLEAR     61  54  77 N5        30.26R
LANCASTER      CLEAR     62  52  69 NE3       30.26R
COATESVILLE    SUNNY     64  55  72 CALM      30.27S
POTTSTOWN      CLEAR     59  55  87 NE5       30.28R
BLUE BELL      CLEAR     59  54  82 CALM      30.26S
DOYLESTOWN     CLEAR     60  53  77 VRB3      30.26S
WILLOW GROVE   NOT AVBL
NORTH PHILA    CLEAR     64  52  64 NE6       30.27S
PHILADELPHIA   PTCLDY    68  55  63 NE8       30.26R
$$



USA.gov is the U.S. government's official web portal to all federal, state and local government web resources and services.